Date String (YYYY-MM-DD hh:mm:ss) UTC,Instrument flags,Ambient pressure (hPa),Sample flow (lpm),Bypass flow (lpm),Sample temperature (°C),Ambient temperature (°C),ASC tube jacket temperature (°C),LED temperature (°C),Box temperature (°C),Sample RH (%),Span deviation,Mass concentration (μg/m³),Mass concentration (μg/m³),Mass concentration (μg/m³)
DateTimeUTC,F1_M11,P_M11,Q1_M11,Q2_M11,T1_M11,T2_M11,T3_M11,T4_M11,T5_M11,U1_M11,ZSPAN_M11,X0_M11,X2_M11,X1_M11
2022-04-02 23:00:00,,0821.3,5.01,0.00,29.4,28.7,00.0,38.3,31.2,10.5,0000.1,0018.36,0007.16,0006.07
2022-04-02 23:01:00,,0821.2,4.99,0.00,29.4,28.7,00.0,38.3,31.2,10.6,-000.9,0018.35,0007.14,0006.08
2022-04-02 23:02:00,,0821.1,5.01,0.00,29.4,28.7,00.0,38.3,31.2,10.8,-000.8,0018.43,0007.15,0006.07
2022-04-02 23:03:00,,0821.1,4.99,0.00,29.4,28.6,00.0,38.3,31.2,10.4,-000.9,0017.72,0007.14,0006.06
2022-04-02 23:04:00,,0821.1,5.02,0.00,29.4,28.6,00.0,38.3,31.2,10.3,-000.9,0017.76,0007.12,0006.05
2022-04-02 23:05:00,,0821.1,5.00,0.00,29.4,28.7,00.0,38.3,31.2,09.9,-001.1,0017.34,0007.09,0006.05
2022-04-02 23:06:00,,0821.1,5.00,0.00,29.4,28.7,00.0,38.3,31.2,10.0,-001.4,0017.63,0007.10,0006.05
2022-04-02 23:07:00,,0821.1,5.02,0.00,29.5,28.7,00.0,38.3,31.3,10.0,-001.8,0018.93,0007.13,0006.08
2022-04-02 23:08:00,,0821.1,4.98,0.00,29.5,28.7,00.0,38.3,31.3,10.1,-001.8,0018.14,0007.22,0006.13
2022-04-02 23:09:00,,0821.1,5.02,0.00,29.5,28.7,00.0,38.3,31.3,10.1,-001.6,0018.23,0007.28,0006.17
2022-04-02 23:10:00,,0821.1,4.99,0.00,29.5,28.8,00.0,38.3,31.3,10.4,-001.5,0018.22,0007.32,0006.21
2022-04-02 23:11:00,,0821.1,5.01,0.00,29.5,28.8,00.0,38.4,31.3,10.1,-001.1,0018.93,0007.39,0006.24
2022-04-02 23:12:00,,0821.1,4.99,0.00,29.5,28.8,00.0,38.4,31.3,10.1,-000.7,0019.71,0007.42,0006.27
2022-04-02 23:13:00,,0821.1,5.02,0.00,29.5,28.8,00.0,38.4,31.3,09.9,-000.2,0019.48,0007.45,0006.32
2022-04-02 23:14:00,,0821.1,5.00,0.00,29.5,28.8,00.0,38.4,31.3,10.0,0000.4,0019.61,0007.52,0006.34
2022-04-02 23:15:00,,0821.1,5.00,0.00,29.5,28.8,00.0,38.4,31.3,10.3,0000.4,0020.23,0007.61,0006.34
2022-04-02 23:16:00,,0821.1,5.01,0.00,29.5,28.8,00.0,38.4,31.3,10.5,0000.8,0020.05,0007.58,0006.30
2022-04-02 23:17:00,,0821.1,4.99,0.00,29.5,28.8,00.0,38.4,31.3,10.6,0001.9,0018.78,0007.52,0006.27
2022-04-02 23:18:00,,0821.1,5.01,0.00,29.5,28.7,00.0,38.4,31.3,10.5,0004.1,0017.24,0007.44,0006.24
2022-04-02 23:19:00,,0821.1,5.01,0.00,29.5,28.7,00.0,38.4,31.3,10.4,0004.2,0016.53,0007.40,0006.21
2022-04-02 23:20:00,,0821.1,4.99,0.00,29.5,28.8,00.0,38.4,31.3,10.3,0004.4,0016.46,0007.35,0006.19
2022-04-02 23:21:00,,0821.1,5.01,0.00,29.5,28.8,00.0,38.4,31.3,10.4,0005.0,0016.38,0007.31,0006.17
2022-04-02 23:22:00,,0821.1,4.99,0.00,29.6,28.8,00.0,38.4,31.4,10.3,0005.2,0016.88,0007.26,0006.13
2022-04-02 23:23:00,,0821.0,5.01,0.00,29.6,28.8,00.0,38.4,31.4,10.0,0005.2,0016.89,0007.24,0006.09
2022-04-02 23:24:00,,0821.0,4.99,0.00,29.6,28.8,00.0,38.4,31.4,09.9,0005.1,0017.02,0007.20,0006.04
2022-04-02 23:25:00,,0821.0,4.99,0.00,29.6,28.8,00.0,38.5,31.4,09.9,0005.6,0016.74,0007.16,0006.00
2022-04-02 23:26:00,,0821.0,5.01,0.00,29.6,28.8,00.0,38.5,31.4,10.0,0005.9,0016.39,0007.09,0005.97
2022-04-02 23:27:00,,0821.0,5.00,0.00,29.6,28.9,00.0,38.5,31.4,10.0,0006.1,0016.50,0007.10,0005.97
2022-04-02 23:28:00,,0821.1,4.99,0.00,29.6,28.9,00.0,38.5,31.4,10.1,0005.8,0016.89,0007.10,0005.96
2022-04-02 23:29:00,,0821.1,5.02,0.00,29.6,28.9,00.0,38.5,31.4,10.2,0005.8,0017.01,0007.07,0005.93
2022-04-02 23:30:00,,0821.1,4.98,0.00,29.7,28.9,00.0,38.5,31.4,09.9,0007.3,0017.28,0007.05,0005.90
2022-04-02 23:31:00,,0821.1,5.01,0.00,29.7,28.9,00.0,38.5,31.4,09.6,0008.4,0017.24,0007.03,0005.87
2022-04-02 23:32:00,,0821.1,5.00,0.00,29.7,28.9,00.0,38.5,31.5,09.6,0001.6,0017.04,0007.05,0005.85
2022-04-02 23:33:00,,0821.0,4.99,0.00,29.7,28.9,00.0,38.5,31.5,09.6,0002.9,0015.94,0007.07,0005.85
2022-04-02 23:34:00,,0821.0,4.99,0.00,29.7,28.9,00.0,38.5,31.5,09.6,0011.4,0015.61,0007.10,0005.84
2022-04-02 23:35:00,,0821.0,5.01,0.00,29.7,29.0,00.0,38.5,31.5,09.7,0009.5,0015.38,0007.09,0005.82
2022-04-02 23:36:00,,0821.0,5.01,0.00,29.7,29.0,00.0,38.6,31.5,09.8,0006.5,0015.84,0007.07,0005.79
2022-04-02 23:37:00,,0821.0,4.98,0.00,29.7,29.0,00.0,38.6,31.5,09.7,0000.5,0015.75,0007.00,0005.77
2022-04-02 23:38:00,,0821.0,5.02,0.00,29.7,29.0,00.0,38.6,31.5,09.8,-001.2,0015.53,0006.94,0005.74
2022-04-02 23:39:00,,0821.0,5.00,0.00,29.7,29.0,00.0,38.6,31.4,10.1,-003.0,0015.30,0006.93,0005.73
2022-04-02 23:40:00,,0821.0,4.99,0.00,29.7,29.0,00.0,38.6,31.4,10.1,-003.6,0015.18,0006.93,0005.71
2022-04-02 23:41:00,,0821.0,5.00,0.00,29.7,29.0,00.0,38.6,31.4,10.0,-002.4,0014.99,0006.93,0005.71
2022-04-02 23:42:00,,0821.0,5.01,0.00,29.7,29.0,00.0,38.6,31.4,09.9,-000.4,0015.02,0006.93,0005.70
2022-04-02 23:43:00,,0821.0,4.99,0.00,29.7,29.0,00.0,38.6,31.4,09.7,0000.4,0015.40,0006.92,0005.68
2022-04-02 23:44:00,,0821.0,5.00,0.00,29.7,29.0,00.0,38.6,31.4,09.6,0000.7,0015.38,0006.86,0005.67
2022-04-02 23:45:00,,0821.0,5.01,0.00,29.7,28.9,00.0,38.6,31.4,09.6,0000.7,0014.98,0006.83,0005.67
2022-04-02 23:46:00,,0821.0,4.99,0.00,29.7,28.9,00.0,38.6,31.4,10.0,-000.3,0015.04,0006.81,0005.66
2022-04-02 23:47:00,,0821.0,5.01,0.00,29.7,28.9,00.0,38.6,31.5,10.0,-001.1,0015.21,0006.82,0005.64
2022-04-02 23:48:00,,0821.0,5.00,0.00,29.7,29.0,00.0,38.6,31.5,10.0,-001.5,0015.23,0006.81,0005.63
2022-04-02 23:49:00,,0820.9,4.99,0.00,29.7,29.0,00.0,38.6,31.5,10.2,-000.6,0015.20,0006.82,0005.60
2022-04-02 23:50:00,,0821.0,5.00,0.00,29.8,29.0,00.0,38.6,31.5,09.9,0000.7,0015.30,0006.79,0005.57
2022-04-02 23:51:00,,0821.0,5.01,0.00,29.8,29.0,00.0,38.6,31.5,09.9,0002.4,0015.50,0006.76,0005.54
2022-04-02 23:52:00,,0821.0,4.99,0.00,29.8,29.0,00.0,38.6,31.6,09.8,0001.0,0015.58,0006.73,0005.53
2022-04-02 23:53:00,,0821.0,4.99,0.00,29.8,29.1,00.0,38.7,31.6,09.8,0000.0,0015.21,0006.71,0005.52
2022-04-02 23:54:00,,0821.0,5.02,0.00,29.8,29.1,00.0,38.7,31.6,09.8,0000.0,0015.40,0006.68,0005.51
2022-04-02 23:55:00,,0821.0,4.99,0.00,29.8,29.1,00.0,38.7,31.6,09.7,0000.0,0016.10,0006.65,0005.49
2022-04-02 23:56:00,,0821.0,5.00,0.00,29.8,29.1,00.0,38.7,31.6,09.9,0000.0,0015.97,0006.56,0005.42
2022-04-02 23:57:00,,0821.0,5.00,0.00,29.8,29.1,00.0,38.7,31.6,10.0,0000.0,0016.21,0006.51,0005.36
2022-04-02 23:58:00,,0821.0,4.99,0.00,29.8,29.1,00.0,38.7,31.6,10.0,0000.0,0015.58,0006.45,0005.32
2022-04-02 23:59:00,,0821.0,5.01,0.00,29.8,29.1,00.0,38.7,31.6,10.4,0000.0,0015.39,0006.41,0005.28
